When you browse on this site, cookies collect data to enhance your experience and personalize the content and advertising you see.
Visit our Privacy Policy to learn more. By continuing to use the site, you agree to this use of cookies and data.
  • In Österreich
  • Länderverzeichnis
  • Für 7 Tage
  • Wassertemperatur
  • Wetterkarte
  • News
  • Widgets
  • user-avatar
    Anmelden

    Stündliche Wetter Tukupita

    Heute, 23 Januar, Donnerstag

    Zeit Temperatur Niederschläge Wind Luftdruck Luftfeuchtigkeit
    00:00 +23°C° 0 mm 1 m/S 758 mmHg 95%
    01:00 +22°C° 0 mm 1 m/S 757 mmHg 96%
    02:00 +22°C° 0 mm 1 m/S 757 mmHg 98%
    03:00 +22°C° 0 mm 1 m/S 757 mmHg 98%
    04:00 +22°C° 0 mm 1 m/S 757 mmHg 98%
    05:00 +22°C° 0 mm 1 m/S 757 mmHg 98%
    06:00 +23°C° 0 mm 1 m/S 757 mmHg 94%
    07:00 +24°C° 0 mm 1 m/S 758 mmHg 90%
    08:00 +25°C° 0 mm 1 m/S 758 mmHg 86%
    09:00 +27°C° 0 mm 1 m/S 758 mmHg 77%
    10:00 +29°C° 0 mm 1 m/S 758 mmHg 68%
    11:00 +31°C° 0 mm 2 m/S 759 mmHg 59%
    12:00 +32°C° 0 mm 2 m/S 758 mmHg 53%
    13:00 +33°C° 0 mm 1 m/S 757 mmHg 48%
    14:00 +34°C° 0 mm 1 m/S 756 mmHg 43%
    15:00 +34°C° 0 mm 1 m/S 756 mmHg 47%
    16:00 +33°C° 0 mm 1 m/S 756 mmHg 51%
    17:00 +32°C° 0 mm 1 m/S 755 mmHg 54%
    18:00 +30°C° 0 mm 1 m/S 756 mmHg 63%
    19:00 +27°C° 0 mm 2 m/S 756 mmHg 72%
    20:00 +25°C° 0 mm 2 m/S 757 mmHg 80%
    21:00 +24°C° 0 mm 1 m/S 757 mmHg 85%
    22:00 +23°C° 0 mm 1 m/S 757 mmHg 89%
    23:00 +23°C° 0 mm 1 m/S 758 mmHg 94%

    Morgen, 24 Januar, Freitag

    Zeit Temperatur Niederschläge Wind Luftdruck Luftfeuchtigkeit
    00:00 +22°C° 0 mm 1 m/S 757 mmHg 95%
    01:00 +22°C° 0 mm 1 m/S 757 mmHg 97%
    02:00 +22°C° 0 mm 1 m/S 757 mmHg 98%
    03:00 +20°C° 0 mm 0 m/S 757 mmHg 98%
    04:00 +20°C° 0 mm 0 m/S 757 mmHg 98%
    05:00 +20°C° 0 mm 0 m/S 757 mmHg 98%
    06:00 +21°C° 0 mm 0 m/S 758 mmHg 95%
    07:00 +24°C° 0 mm 1 m/S 758 mmHg 92%
    08:00 +25°C° 0 mm 1 m/S 759 mmHg 89%
    09:00 +27°C° 0 mm 1 m/S 759 mmHg 80%
    10:00 +29°C° 0 mm 1 m/S 759 mmHg 71%
    11:00 +31°C° 0 mm 2 m/S 759 mmHg 62%
    12:00 +32°C° 0 mm 2 m/S 758 mmHg 58%
    13:00 +34°C° 0 mm 2 m/S 757 mmHg 54%
    14:00 +35°C° 0 mm 2 m/S 757 mmHg 50%
    15:00 +32°C° 0.1 mm 2 m/S 756 mmHg 57%
    16:00 +31°C° 0.1 mm 2 m/S 756 mmHg 65%
    17:00 +30°C° 0.1 mm 2 m/S 755 mmHg 72%
    18:00 +28°C° 0 mm 2 m/S 756 mmHg 77%
    19:00 +27°C° 0 mm 2 m/S 757 mmHg 83%
    20:00 +26°C° 0 mm 2 m/S 757 mmHg 88%
    21:00 +25°C° 0 mm 1 m/S 758 mmHg 91%
    22:00 +24°C° 0 mm 1 m/S 758 mmHg 93%
    23:00 +24°C° 0 mm 1 m/S 758 mmHg 95%

    übermorgen, 25 Januar, Samstag

    Zeit Temperatur Niederschläge Wind Luftdruck Luftfeuchtigkeit
    00:00 +24°C° 0 mm 1 m/S 758 mmHg 96%
    01:00 +24°C° 0 mm 1 m/S 758 mmHg 97%
    02:00 +23°C° 0 mm 1 m/S 758 mmHg 98%
    03:00 +23°C° 0 mm 1 m/S 758 mmHg 98%
    04:00 +21°C° 0 mm 0 m/S 758 mmHg 98%
    05:00 +21°C° 0 mm 0 m/S 758 mmHg 98%
    06:00 +24°C° 0 mm 1 m/S 758 mmHg 95%
    07:00 +25°C° 0 mm 1 m/S 759 mmHg 92%
    08:00 +26°C° 0 mm 1 m/S 759 mmHg 89%
    09:00 +28°C° 0 mm 2 m/S 759 mmHg 80%
    10:00 +29°C° 0 mm 2 m/S 760 mmHg 71%
    11:00 +31°C° 0 mm 2 m/S 760 mmHg 63%
    12:00 +31°C° 0.2 mm 2 m/S 759 mmHg 65%
    13:00 +30°C° 0.2 mm 2 m/S 758 mmHg 68%
    14:00 +30°C° 0.2 mm 2 m/S 758 mmHg 70%
    15:00 +30°C° 0 mm 2 m/S 757 mmHg 69%
    16:00 +30°C° 0 mm 2 m/S 757 mmHg 67%
    17:00 +31°C° 0 mm 2 m/S 756 mmHg 66%
    18:00 +29°C° 0 mm 2 m/S 757 mmHg 73%
    19:00 +27°C° 0 mm 2 m/S 757 mmHg 80%
    20:00 +26°C° 0 mm 2 m/S 758 mmHg 88%
    21:00 +25°C° 0 mm 2 m/S 758 mmHg 90%
    22:00 +25°C° 0 mm 1 m/S 758 mmHg 93%
    23:00 +24°C° 0 mm 1 m/S 759 mmHg 96%

    26 Januar, Sonntag

    Zeit Temperatur Niederschläge Wind Luftdruck Luftfeuchtigkeit
    00:00 +23°C° 0 mm 1 m/S 758 mmHg 97%
    01:00 +23°C° 0 mm 1 m/S 758 mmHg 97%
    02:00 +23°C° 0 mm 1 m/S 757 mmHg 98%
    03:00 +23°C° 0 mm 1 m/S 758 mmHg 98%
    04:00 +22°C° 0 mm 1 m/S 758 mmHg 98%
    05:00 +20°C° 0 mm 0 m/S 758 mmHg 98%
    06:00 +23°C° 0 mm 1 m/S 759 mmHg 94%
    07:00 +24°C° 0 mm 1 m/S 759 mmHg 90%
    08:00 +25°C° 0 mm 1 m/S 760 mmHg 87%
    09:00 +27°C° 0 mm 1 m/S 760 mmHg 77%
    10:00 +29°C° 0 mm 2 m/S 760 mmHg 68%
    11:00 +32°C° 0 mm 2 m/S 760 mmHg 58%
    12:00 +32°C° 0 mm 2 m/S 759 mmHg 54%
    13:00 +34°C° 0 mm 2 m/S 758 mmHg 49%
    14:00 +35°C° 0 mm 2 m/S 757 mmHg 45%
    15:00 +34°C° 0 mm 2 m/S 757 mmHg 49%
    16:00 +32°C° 0 mm 2 m/S 757 mmHg 54%
    17:00 +32°C° 0 mm 2 m/S 756 mmHg 58%
    18:00 +30°C° 0 mm 2 m/S 757 mmHg 66%
    19:00 +28°C° 0 mm 2 m/S 757 mmHg 75%
    20:00 +26°C° 0 mm 2 m/S 758 mmHg 83%
    21:00 +25°C° 0 mm 2 m/S 758 mmHg 87%
    22:00 +24°C° 0 mm 1 m/S 759 mmHg 90%
    23:00 +23°C° 0 mm 1 m/S 759 mmHg 94%

    27 Januar, Montag

    Zeit Temperatur Niederschläge Wind Luftdruck Luftfeuchtigkeit
    00:00 +23°C° 0 mm 1 m/S 759 mmHg 95%
    01:00 +22°C° 0 mm 1 m/S 758 mmHg 96%
    02:00 +22°C° 0 mm 1 m/S 758 mmHg 98%
    03:00 +22°C° 0 mm 1 m/S 758 mmHg 98%
    04:00 +22°C° 0 mm 1 m/S 758 mmHg 98%
    05:00 +22°C° 0 mm 1 m/S 758 mmHg 98%
    06:00 +23°C° 0 mm 1 m/S 759 mmHg 95%
    07:00 +24°C° 0 mm 1 m/S 759 mmHg 92%
    08:00 +25°C° 0 mm 1 m/S 760 mmHg 89%
    09:00 +27°C° 0 mm 1 m/S 760 mmHg 82%
    10:00 +28°C° 0 mm 1 m/S 760 mmHg 75%
    11:00 +30°C° 0 mm 2 m/S 760 mmHg 68%
    12:00 +31°C° 0 mm 2 m/S 759 mmHg 64%
    13:00 +32°C° 0 mm 1 m/S 758 mmHg 60%
    14:00 +33°C° 0 mm 1 m/S 758 mmHg 56%
    15:00 +32°C° 0.2 mm 2 m/S 757 mmHg 62%
    16:00 +31°C° 0.2 mm 2 m/S 757 mmHg 68%
    17:00 +30°C° 0.2 mm 2 m/S 756 mmHg 74%
    18:00 +29°C° 0 mm 2 m/S 757 mmHg 79%
    19:00 +27°C° 0 mm 2 m/S 757 mmHg 84%
    20:00 +26°C° 0 mm 2 m/S 758 mmHg 90%
    21:00 +26°C° 0 mm 2 m/S 758 mmHg 93%
    22:00 +25°C° 0 mm 1 m/S 759 mmHg 95%
    23:00 +25°C° 0 mm 1 m/S 759 mmHg 98%

    28 Januar, Dienstag

    Zeit Temperatur Niederschläge Wind Luftdruck Luftfeuchtigkeit
    00:00 +25°C° 0 mm 1 m/S 758 mmHg 98%
    01:00 +24°C° 0 mm 1 m/S 758 mmHg 99%
    02:00 +24°C° 0 mm 1 m/S 758 mmHg 99%
    03:00 +24°C° 0 mm 1 m/S 758 mmHg 99%
    04:00 +24°C° 0 mm 1 m/S 757 mmHg 99%
    05:00 +24°C° 0 mm 1 m/S 757 mmHg 99%
    06:00 +23°C° 0 mm 0 m/S 758 mmHg 96%
    07:00 +24°C° 0 mm 0 m/S 758 mmHg 93%
    08:00 +24°C° 0 mm 0 m/S 759 mmHg 90%
    09:00 +28°C° 0.1 mm 1 m/S 759 mmHg 82%
    10:00 +30°C° 0.1 mm 1 m/S 759 mmHg 73%
    11:00 +32°C° 0.1 mm 2 m/S 759 mmHg 64%
    12:00 +32°C° 0.5 mm 2 m/S 758 mmHg 66%
    13:00 +32°C° 0.5 mm 2 m/S 758 mmHg 67%
    14:00 +32°C° 0.5 mm 2 m/S 757 mmHg 68%
    15:00 +32°C° 0.2 mm 2 m/S 756 mmHg 69%
    16:00 +31°C° 0.2 mm 2 m/S 756 mmHg 70%
    17:00 +31°C° 0.2 mm 2 m/S 756 mmHg 71%
    18:00 +30°C° 0.1 mm 2 m/S 756 mmHg 78%
    19:00 +28°C° 0.1 mm 2 m/S 757 mmHg 85%
    20:00 +27°C° 0.1 mm 2 m/S 758 mmHg 91%
    21:00 +26°C° 0 mm 2 m/S 758 mmHg 93%
    22:00 +26°C° 0 mm 1 m/S 758 mmHg 95%
    23:00 +25°C° 0 mm 1 m/S 758 mmHg 97%
    Mehr zeigen